ATLAS 5 CENTAUR DEB, 43963

Orbit data source: Space-Track

ATLAS 5 CENTAUR DEB, 43963 is space debris in HEO originally from a launch on Wed, 17 Sep 2014 UTC launched from the Air Force Eastern Test Range (AFETR). Debris objects in space refer to the collection of defunct objects orbiting the Earth. Examples of debris include non-operational satellites, rocket bodies, and fragments generated from explosions, collisions, or faulty payload assembly.

Loading next visibility...
Identifier
43963, 2014-055S
Orbit
HEO
Country
Flag of USUS
Related business
Flag of USUnited Launch Alliance/Lockheed Martin (US)
Manufacturer
Unknown
Mission
Spacecraft
Bus & Motor
Unknown
Mass
Unknown
Launch date (UTC)
2014-09-17 (11 years ago)
Launch vehicle
Unknown
Launch site
Air Force Eastern Test Range (AFETR)
Object type
Payload
Rocket body
Debris
Shape & HBR
Unknown shape, 1.1 m
Radar Cross Section
Small (<0.1 m²)

Expand to show TLE details & history
Last TLE update: 1 day ago

TLE from 1 day ago
0 ATLAS 5 CENTAUR DEB
1 43963U 14055S   25348.96457186 -.00000038  00000-0  00000-0 0  9990
2 43963  20.3222 142.9507 4986182 168.3215 209.9400  1.87944292 50005
Epoch: 2025-12-14T23:08Z
TLE epoch observation values (Epoch: 2025-12-14T23:08:59.008Z)
Latitude
-0.00007°
Longitude
71.82357°
Altitude
34,329.892 km
Speed
2.283 km/s
True Right ascension
09h 31m 45s
True Declination
0° 00' 00"
Sunlit
Object was in daylight at epoch
Visualization orbit readout
Latitude
Unknown
Longitude
Unknown
Altitude
Unknown
Speed
Unknown
Apparent Right ascension
Unknown
Apparent Declination
Unknown
Sunlit
N/A
Visualization observer readout
Local Sidereal Time
08:42:08
Azimuth
Unknown
Elevation
Unknown
Doppler factor
Unknown
Orbital elements
Apogee altitude
35,191.058 km
Perigee altitude
7,529.367 km
Semi-major axis
27,738.349 km
Eccentricity
0.49862
Inclination
20.3222°
RAAN
142.9507°
Arg. of periapsis
168.3215°
True anomaly
191.71483°
Mean anomaly
209.94°
Eccentric anomaly
200.11504°
Mean motion
0.46981 °/min
Orbital period
766.27 mins
BSTAR
0
Loading maneuver chart data...
Computing Atmospheric mass density...

Documentation

Showing up to 5 results
|